[[{"header":{"parameterUnit":"m.s-1","parameterCategory":1,"la1":30.2991,"la2":30.254,"lo1":-89.0895,"lo2":-89.0444,"dy":0.0017,"dx":0.0017,"nx":28,"ny":28,"refTime":"2024-12-18T03:00:00:Z","depth":0,"parameterNumber":2,"parameterNumberName":"U-component_of_WINDS"},"data":[0,0,0,0,0,0,0,0,0,0,0,0,0,0,0,0,0,0,0,0,0,0,0,0,0,0,0,0,0,0,0,0,0,0,0,0,0,0,0,0,0,0,0,0,0,0,0,0,0,0,0,0,0,0,0,0,0,0,1.4355,1.4356,0,1.441,1.441,1.4411,1.4421,1.4421,1.442,1.442,1.4474,1.4476,1.4478,0,0,0,0,0,0,0,0,0,0,0,0,0,1.426,1.4261,1.4355,1.4356,1.4357,1.441,1.441,1.4411,1.4421,1.4421,1.442,1.4419,1.4474,1.4476,1.4478,0,0,0,0,0,0,0,0,0,0,0,0,0,1.4306,1.4262,1.4355,1.4368,1.437,1.4409,1.441,1.4411,1.4421,1.4421,1.442,1.4419,1.4473,1.4476,1.4478,1.4509,0,0,1.4487,1.4488,0,0,0,0,0,0,0,0,1.4304,1.431,1.4365,1.4367,1.4369,1.4408,1.4397,1.4444,1.4421,1.4402,1.442,1.4419,1.4453,1.4457,1.4469,1.4511,1.4514,1.4487,1.4489,1.449,1.4491,0,0,0,0,0,0,0,1.43,1.4307,1.4377,1.4366,1.4368,1.4371,1.4377,1.4406,1.443,1.4403,1.4404,1.441,1.4453,1.4466,1.447,1.4514,1.4487,1.449,1.4491,1.4492,1.4586,1.4586,0,0,0,0,0,0,1.4295,1.4305,1.4375,1.4378,1.4334,1.4373,1.438,1.4396,1.443,1.4434,1.4411,1.4411,1.4461,1.4467,1.4472,1.451,1.449,1.4493,1.4494,1.4585,1.4586,1.4587,0,0,0,0,0,0,1.4293,1.4301,1.4373,1.4342,1.4351,1.4376,1.4394,1.4397,1.441,1.4436,1.444,1.4419,1.4461,1.4468,1.45,1.4512,1.4494,1.4496,1.4584,1.4585,1.4586,1.4586,0,0,0,0,0,0,1.429,1.43,1.4312,1.4342,1.4353,1.44,1.4395,1.4399,1.4415,1.4415,1.4445,1.4449,1.4461,1.4496,1.4503,1.4516,1.4499,1.4583,1.4584,1.4586,1.4585,1.4587,1.4589,0,0,0,0,0,1.4287,1.4309,1.4313,1.4321,1.4368,1.44,1.4407,1.4421,1.4416,1.4428,1.4445,1.4448,1.451,1.4499,1.4507,1.4521,1.4582,1.4584,1.4586,1.4584,1.4587,1.4589,0,0,0,0,0,0,1.4279,1.4313,1.4317,1.4351,1.4373,1.4402,1.4418,1.4423,1.4446,1.4445,1.4462,1.4468,1.4499,1.4513,1.45,1.4552,1.4546,1.4549,1.4542,1.4545,1.4546,1.4542,1.4501,0,0,0,0,0,1.4282,1.4306,1.4334,1.4361,1.4372,1.4393,1.4407,1.4417,1.444,1.4449,1.4468,1.449,1.4515,1.4531,1.4554,1.4588,1.4594,1.4601,1.4603,1.4605,1.4607,1.4627,1.463,1.4593,1.4593,1.4592,0,0,1.4287,1.4308,1.4322,1.436,1.4378,1.4402,1.44,1.4426,1.4444,1.4453,1.4484,1.4499,1.4525,1.4558,1.4573,1.457,1.4619,1.4607,1.4608,1.461,1.4629,1.4632,1.4635,1.4594,1.4594,1.4593,0,0,1.4308,1.4327,1.4352,1.437,1.4398,1.4412,1.4418,1.4447,1.4457,1.4489,1.4497,1.4518,1.456,1.4579,1.4593,1.4623,1.4627,1.4631,1.4641,1.4659,1.4662,1.4665,1.4675,1.4679,1.4633,1.4633,1.4633,0,1.4311,1.4348,1.4363,1.4389,1.4405,1.4415,1.4441,1.4458,1.4492,1.4503,1.4499,1.4553,1.4571,1.4608,1.4616,1.4627,1.4635,1.4627,1.466,1.4663,1.4666,1.4676,1.468,1.4634,1.4634,1.4634,1.4634,0,1.435,1.4375,1.4392,1.4425,1.4444,1.4469,1.4488,1.4505,1.4513,1.4527,1.456,1.4582,1.4611,1.4621,1.4629,1.466,1.4657,1.4657,1.4651,1.467,1.468,1.4684,1.4634,1.4634,1.4634,1.4634,0,0,1.4367,1.441,1.4416,1.4431,1.4463,1.4483,1.4509,1.4538,1.4552,1.4576,1.4598,1.4634,1.4634,1.4651,1.4661,1.4677,1.47,1.4675,1.4676,1.4679,1.4736,1.4736,1.474,1.4703,1.4704,1.4704,1.4734,0,1.4392,1.4439,1.4455,1.4493,1.4518,1.4528,1.4551,1.4573,1.4587,1.461,1.4626,1.4651,1.4649,1.466,1.4676,1.4693,1.4711,1.4692,1.4723,1.4724,1.4716,1.4745,1.4745,1.4772,1.4738,1.4738,1.4739,0,1.4428,1.4453,1.4494,1.4524,1.4535,1.4555,1.4583,1.4604,1.463,1.4639,1.4659,1.4668,1.4695,1.4688,1.4726,1.4712,1.4726,1.4737,1.4738,1.4742,1.4732,1.4749,1.478,1.4784,1.4745,1.4745,1.4744,0,1.4437,1.448,1.4511,1.4524,1.456,1.4574,1.4589,1.4614,1.4631,1.4655,1.4666,1.4694,1.4709,1.473,1.4746,1.4739,1.4783,1.4777,1.4792,1.4791,1.48,1.4799,1.4834,1.4809,1.4809,1.4809,1.4809,0,1.4463,1.4488,1.4516,1.4534,1.4563,1.458,1.4608,1.4624,1.4646,1.4668,1.4679,1.47,1.472,1.4743,1.4756,1.4786,1.4793,1.4801,1.4804,1.48,1.4799,1.4809,1.4807,1.481,1.481,1.481,1.481,0,1.4477,1.4497,1.4531,1.4562,1.4571,1.459,1.4617,1.4636,1.4651,1.4679,1.4687,1.4711,1.4739,1.4757,1.4793,1.4802,1.4834,1.4837,1.4826,1.4827,1.4841,1.4839,1.4883,1.4889,1.4861,1.4861,1.4861,0,1.4493,1.4512,1.4546,1.4562,1.4578,1.4603,1.462,1.4639,1.4656,1.4688,1.4703,1.4731,1.4755,1.48,1.482,1.4848,1.4851,1.4865,1.4855,1.4851,1.4851,1.485,1.4852,1.4866,1.4866,1.4866,1.4866,0,1.4518,1.4527,1.4552,1.4581,1.4601,1.4625,1.4648,1.466,1.4683,1.4702,1.4731,1.475,1.4787,1.4815,1.4845,1.4861,1.4867,1.4869,1.4874,1.487,1.4862,1.4867,1.4829,1.4868,1.4868,1.4868,1.4868,1.4867,1.4533,1.4551,1.4578,1.4606,1.4626,1.4647,1.4667,1.4685,1.471,1.4742,1.4751,1.4781,1.4807,1.4848,1.4864,1.4888,1.4887,1.4894,1.4895,1.4897,1.4897,1.4859,1.4893,1.4893,1.4893,1.4893,1.4893,0,1.4559,1.4577,1.4603,1.4635,1.4657,1.4662,1.4689,1.4706,1.4733,1.4757,1.4781,1.4814,1.4842,1.4866,1.4895,1.4909,1.4913,1.4916,1.4915,1.4919,1.4896,1.4889,1.4913,1.4913,1.4913,1.4913,1.4913,1.4913,1.4575,1.4606,1.4619,1.466,1.4678,1.4708,1.4722,1.4743,1.4762,1.4799,1.4823,1.4838,1.4862,1.4893,1.4919,1.4925,1.4935,1.4937,1.4944,1.4922,1.492,1.4918,1.4911,1.4939,1.4939,1.4964,1.4965,1.4965]},{"header":{"parameterUnit":"m.s-1","parameterCategory":1,"la1":30.2991,"la2":30.254,"lo1":-89.0895,"lo2":-89.0444,"dy":0.0017,"dx":0.0017,"nx":28,"ny":28,"refTime":"2024-12-18T03:00:00:Z","depth":0,"parameterNumber":3,"parameterNumberName":"V-component_of_WINDS"},"data":[0,0,0,0,0,0,0,0,0,0,0,0,0,0,0,0,0,0,0,0,0,0,0,0,0,0,0,0,0,0,0,0,0,0,0,0,0,0,0,0,0,0,0,0,0,0,0,0,0,0,0,0,0,0,0,0,0,0,-0.1084,-0.1085,0,-0.1152,-0.1153,-0.1153,-0.1145,-0.1144,-0.1143,-0.1142,-0.1215,-0.1218,-0.1221,0,0,0,0,0,0,0,0,0,0,0,0,0,-0.0951,-0.0954,-0.1084,-0.1085,-0.1085,-0.1152,-0.1153,-0.1154,-0.1145,-0.1144,-0.1142,-0.1141,-0.1214,-0.1218,-0.1221,0,0,0,0,0,0,0,0,0,0,0,0,0,-0.1013,-0.0955,-0.1084,-0.1089,-0.109,-0.1152,-0.1153,-0.1154,-0.1145,-0.1144,-0.1142,-0.114,-0.1213,-0.1217,-0.1222,-0.1283,0,0,-0.1235,-0.1237,0,0,0,0,0,0,0,0,-0.101,-0.1018,-0.1087,-0.1089,-0.109,-0.1138,-0.1133,-0.1197,-0.1146,-0.1125,-0.1141,-0.114,-0.1191,-0.1197,-0.1214,-0.1287,-0.129,-0.1236,-0.1239,-0.1241,-0.1242,0,0,0,0,0,0,0,-0.1005,-0.1015,-0.1111,-0.1088,-0.109,-0.109,-0.1097,-0.1145,-0.1167,-0.1126,-0.1126,-0.1134,-0.1192,-0.1209,-0.1215,-0.1291,-0.1236,-0.124,-0.1242,-0.1244,-0.142,-0.1422,0,0,0,0,0,0,-0.0999,-0.1012,-0.1109,-0.1113,-0.1045,-0.1094,-0.1101,-0.1124,-0.1166,-0.1171,-0.1135,-0.1133,-0.1203,-0.121,-0.1218,-0.1295,-0.124,-0.1245,-0.1247,-0.1418,-0.1421,-0.1423,0,0,0,0,0,0,-0.0996,-0.1008,-0.1106,-0.1062,-0.1075,-0.1098,-0.1124,-0.1127,-0.1145,-0.1173,-0.1177,-0.1149,-0.1202,-0.1212,-0.1267,-0.1297,-0.1247,-0.1251,-0.1416,-0.1419,-0.1422,-0.1447,0,0,0,0,0,0,-0.0993,-0.1007,-0.1029,-0.1063,-0.1077,-0.1153,-0.1125,-0.1129,-0.1152,-0.115,-0.1187,-0.1192,-0.1201,-0.1261,-0.1272,-0.1302,-0.1254,-0.1413,-0.1417,-0.1421,-0.1444,-0.145,-0.1456,0,0,0,0,0,-0.0988,-0.1034,-0.103,-0.1042,-0.1105,-0.1154,-0.1163,-0.1172,-0.1154,-0.1178,-0.1196,-0.119,-0.1292,-0.1266,-0.1279,-0.1311,-0.1412,-0.1416,-0.1421,-0.1441,-0.1449,-0.1456,0,0,0,0,0,0,-0.1004,-0.1038,-0.1035,-0.1093,-0.1121,-0.1153,-0.1183,-0.118,-0.1214,-0.1211,-0.1222,-0.123,-0.1287,-0.1304,-0.1276,-0.1374,-0.135,-0.1357,-0.1361,-0.1369,-0.1375,-0.137,-0.1258,0,0,0,0,0,-0.1014,-0.105,-0.1078,-0.1127,-0.1141,-0.116,-0.1181,-0.1186,-0.1216,-0.1228,-0.125,-0.1281,-0.132,-0.1345,-0.1382,-0.1446,-0.1455,-0.1474,-0.1481,-0.1486,-0.1492,-0.153,-0.1539,-0.1437,-0.1437,-0.1437,0,0,-0.1036,-0.1059,-0.1081,-0.1131,-0.1153,-0.1192,-0.117,-0.1211,-0.124,-0.1235,-0.1289,-0.1306,-0.1341,-0.1402,-0.1429,-0.1418,-0.1522,-0.1491,-0.1495,-0.1499,-0.1535,-0.1545,-0.1554,-0.144,-0.144,-0.1439,0,0,-0.1096,-0.1116,-0.1159,-0.1182,-0.1216,-0.1228,-0.1238,-0.1271,-0.1283,-0.1337,-0.1334,-0.137,-0.1436,-0.1462,-0.1483,-0.1554,-0.1551,-0.1566,-0.16,-0.1636,-0.1644,-0.1651,-0.1679,-0.1688,-0.1572,-0.1572,-0.1573,0,-0.1119,-0.1176,-0.1183,-0.1225,-0.1248,-0.1243,-0.1289,-0.1311,-0.1356,-0.1373,-0.1359,-0.1443,-0.1466,-0.1534,-0.1551,-0.1568,-0.1582,-0.1563,-0.1642,-0.165,-0.1656,-0.1683,-0.1693,-0.1574,-0.1574,-0.1574,-0.1574,0,-0.1204,-0.1243,-0.1275,-0.1317,-0.1343,-0.1387,-0.1402,-0.1429,-0.1431,-0.1446,-0.1502,-0.153,-0.1574,-0.159,-0.1593,-0.1659,-0.1651,-0.1639,-0.1615,-0.1668,-0.1693,-0.1703,-0.1577,-0.1576,-0.1576,-0.1575,0,0,-0.1276,-0.1322,-0.1333,-0.1354,-0.1391,-0.1422,-0.1467,-0.1509,-0.1532,-0.1563,-0.1602,-0.1659,-0.1649,-0.1674,-0.168,-0.1712,-0.1769,-0.1697,-0.1698,-0.1711,-0.1846,-0.1856,-0.1867,-0.1767,-0.1769,-0.177,-0.1844,0,-0.134,-0.1417,-0.1426,-0.1495,-0.1533,-0.153,-0.157,-0.1598,-0.1613,-0.1649,-0.1666,-0.1706,-0.1689,-0.1705,-0.1736,-0.1756,-0.1797,-0.175,-0.1806,-0.1807,-0.1798,-0.188,-0.189,-0.1958,-0.1854,-0.1855,-0.1857,0,-0.1426,-0.1459,-0.1532,-0.1566,-0.1582,-0.1617,-0.1657,-0.1691,-0.1724,-0.1733,-0.1761,-0.1763,-0.1811,-0.1784,-0.1852,-0.182,-0.1844,-0.1857,-0.186,-0.1867,-0.1836,-0.1891,-0.198,-0.1991,-0.1872,-0.1871,-0.1869,0,-0.1474,-0.1537,-0.1589,-0.1606,-0.1646,-0.1671,-0.169,-0.1721,-0.1746,-0.1781,-0.1798,-0.1839,-0.1862,-0.1895,-0.1909,-0.1888,-0.1977,-0.1951,-0.1988,-0.1988,-0.2008,-0.2007,-0.2104,-0.202,-0.202,-0.2019,-0.2019,0,-0.1546,-0.1591,-0.1611,-0.1644,-0.1695,-0.1705,-0.1757,-0.1774,-0.1802,-0.184,-0.184,-0.1875,-0.1891,-0.193,-0.1941,-0.1997,-0.2007,-0.2017,-0.202,-0.2018,-0.2017,-0.2035,-0.2031,-0.2022,-0.2022,-0.2021,-0.2021,0,-0.1608,-0.1623,-0.168,-0.1714,-0.1723,-0.176,-0.179,-0.1823,-0.1837,-0.1885,-0.1897,-0.192,-0.1966,-0.1983,-0.2038,-0.2046,-0.2112,-0.211,-0.21,-0.2102,-0.2139,-0.2136,-0.2252,-0.2269,-0.2172,-0.2173,-0.2173,0,-0.1654,-0.1689,-0.1726,-0.1751,-0.177,-0.1809,-0.1835,-0.1847,-0.1874,-0.1915,-0.1943,-0.1988,-0.2025,-0.2099,-0.2122,-0.2165,-0.2166,-0.2203,-0.2172,-0.217,-0.2169,-0.2167,-0.2172,-0.221,-0.2211,-0.2211,-0.2212,0,-0.1735,-0.1741,-0.1777,-0.1817,-0.1847,-0.1879,-0.191,-0.1931,-0.1948,-0.1979,-0.2025,-0.2054,-0.2111,-0.2157,-0.2201,-0.2222,-0.2221,-0.2222,-0.2233,-0.2232,-0.2226,-0.2232,-0.2118,-0.2219,-0.2218,-0.2218,-0.2218,-0.2217,-0.1792,-0.1823,-0.1855,-0.1896,-0.1921,-0.195,-0.1983,-0.2002,-0.204,-0.2087,-0.2092,-0.2142,-0.2177,-0.2236,-0.2259,-0.23,-0.229,-0.2306,-0.231,-0.2315,-0.2318,-0.2218,-0.2308,-0.2308,-0.2308,-0.2308,-0.2307,0,-0.1874,-0.1894,-0.1932,-0.1976,-0.2009,-0.2003,-0.2038,-0.2067,-0.2111,-0.2142,-0.2178,-0.2233,-0.2278,-0.2305,-0.235,-0.2378,-0.2379,-0.239,-0.2389,-0.2394,-0.2323,-0.231,-0.2388,-0.2388,-0.2388,-0.2388,-0.2388,-0.2388,-0.1921,-0.1975,-0.1985,-0.2052,-0.2072,-0.2121,-0.2142,-0.217,-0.2195,-0.2256,-0.2293,-0.2309,-0.234,-0.2388,-0.243,-0.2437,-0.2455,-0.2467,-0.2473,-0.2407,-0.2399,-0.2391,-0.2378,-0.247,-0.247,-0.2541,-0.2541,-0.2542]}]]